When you browse on this site, cookies collect data to enhance your experience and personalize the content and advertising you see.
Visit our Privacy Policy to learn more. By continuing to use the site, you agree to this use of cookies and data.
  • In Belgien
  • Länderverzeichnis
  • Für 7 Tage
  • Wassertemperatur
  • Satellitenkarten
  • Wetterkarte
  • Widgets
  • user-avatar
    Anmelden

    Stündliche Wetter Albany

    Heute, 22 Februar, Freitag

    Zeit Temperatur Niederschläge Wind Luftdruck Luftfeuchtigkeit
    00:00 +19°C° 0 mm 2 m/S 755 mmHg 90%
    01:00 +19°C° 0 mm 2 m/S 755 mmHg 90%
    02:00 +19°C° 0 mm 2 m/S 754 mmHg 90%
    03:00 +18°C° 0 mm 2 m/S 754 mmHg 90%
    04:00 +18°C° 0 mm 2 m/S 755 mmHg 91%
    05:00 +18°C° 0 mm 2 m/S 755 mmHg 91%
    06:00 +19°C° 0 mm 2 m/S 755 mmHg 87%
    07:00 +19°C° 0 mm 2 m/S 755 mmHg 84%
    08:00 +20°C° 0 mm 3 m/S 755 mmHg 80%
    09:00 +22°C° 0 mm 3 m/S 755 mmHg 70%
    10:00 +25°C° 0 mm 3 m/S 755 mmHg 60%
    11:00 +28°C° 0 mm 3 m/S 755 mmHg 49%
    12:00 +28°C° 0 mm 4 m/S 755 mmHg 47%
    13:00 +29°C° 0 mm 4 m/S 755 mmHg 46%
    14:00 +29°C° 0 mm 5 m/S 754 mmHg 44%
    15:00 +28°C° 0 mm 5 m/S 754 mmHg 48%
    16:00 +26°C° 0 mm 5 m/S 754 mmHg 52%
    17:00 +25°C° 0 mm 5 m/S 754 mmHg 56%
    18:00 +22°C° 0 mm 4 m/S 755 mmHg 65%
    19:00 +21°C° 0 mm 2 m/S 755 mmHg 75%
    20:00 +20°C° 0 mm 1 m/S 756 mmHg 84%
    21:00 +20°C° 0 mm 1 m/S 756 mmHg 85%
    22:00 +20°C° 0 mm 1 m/S 756 mmHg 87%
    23:00 +19°C° 0 mm 1 m/S 757 mmHg 89%

    Morgen, 23 Februar, Samstag

    Zeit Temperatur Niederschläge Wind Luftdruck Luftfeuchtigkeit
    00:00 +19°C° 0 mm 1 m/S 757 mmHg 90%
    01:00 +18°C° 0 mm 2 m/S 756 mmHg 90%
    02:00 +18°C° 0 mm 2 m/S 756 mmHg 91%
    03:00 +18°C° 0 mm 2 m/S 756 mmHg 91%
    04:00 +18°C° 0 mm 2 m/S 756 mmHg 91%
    05:00 +18°C° 0 mm 2 m/S 756 mmHg 91%
    06:00 +19°C° 0 mm 2 m/S 756 mmHg 84%
    07:00 +21°C° 0 mm 2 m/S 757 mmHg 76%
    08:00 +23°C° 0 mm 2 m/S 757 mmHg 69%
    09:00 +25°C° 0 mm 2 m/S 757 mmHg 59%
    10:00 +28°C° 0 mm 2 m/S 757 mmHg 50%
    11:00 +30°C° 0 mm 2 m/S 757 mmHg 41%
    12:00 +30°C° 0 mm 2 m/S 756 mmHg 40%
    13:00 +31°C° 0 mm 3 m/S 756 mmHg 40%
    14:00 +32°C° 0 mm 4 m/S 755 mmHg 40%
    15:00 +29°C° 0 mm 4 m/S 755 mmHg 48%
    16:00 +27°C° 0 mm 4 m/S 756 mmHg 56%
    17:00 +25°C° 0 mm 4 m/S 756 mmHg 65%
    18:00 +24°C° 0 mm 3 m/S 756 mmHg 72%
    19:00 +21°C° 0 mm 2 m/S 757 mmHg 80%
    20:00 +20°C° 0 mm 2 m/S 758 mmHg 87%
    21:00 +20°C° 0 mm 2 m/S 758 mmHg 88%
    22:00 +20°C° 0 mm 2 m/S 759 mmHg 89%
    23:00 +20°C° 0 mm 2 m/S 759 mmHg 90%

    übermorgen, 24 Februar, Sonntag

    Zeit Temperatur Niederschläge Wind Luftdruck Luftfeuchtigkeit
    00:00 +20°C° 0 mm 2 m/S 759 mmHg 91%
    01:00 +20°C° 0 mm 2 m/S 759 mmHg 91%
    02:00 +19°C° 0 mm 3 m/S 759 mmHg 91%
    03:00 +19°C° 0 mm 3 m/S 759 mmHg 90%
    04:00 +18°C° 0 mm 2 m/S 759 mmHg 90%
    05:00 +18°C° 0 mm 2 m/S 760 mmHg 89%
    06:00 +19°C° 0 mm 2 m/S 760 mmHg 83%
    07:00 +20°C° 0 mm 2 m/S 761 mmHg 77%
    08:00 +21°C° 0 mm 3 m/S 761 mmHg 71%
    09:00 +22°C° 0 mm 3 m/S 761 mmHg 64%
    10:00 +25°C° 0 mm 3 m/S 762 mmHg 57%
    11:00 +26°C° 0 mm 3 m/S 762 mmHg 50%
    12:00 +26°C° 0 mm 4 m/S 762 mmHg 50%
    13:00 +26°C° 0 mm 4 m/S 761 mmHg 50%
    14:00 +26°C° 0 mm 5 m/S 761 mmHg 50%
    15:00 +25°C° 0 mm 5 m/S 761 mmHg 53%
    16:00 +23°C° 0 mm 5 m/S 761 mmHg 56%
    17:00 +22°C° 0 mm 6 m/S 761 mmHg 59%
    18:00 +21°C° 0 mm 5 m/S 761 mmHg 65%
    19:00 +20°C° 0 mm 5 m/S 762 mmHg 70%
    20:00 +19°C° 0 mm 5 m/S 763 mmHg 75%
    21:00 +19°C° 0 mm 5 m/S 763 mmHg 76%
    22:00 +17°C° 0 mm 5 m/S 763 mmHg 77%
    23:00 +17°C° 0 mm 5 m/S 763 mmHg 78%

    25 Februar, Montag

    Zeit Temperatur Niederschläge Wind Luftdruck Luftfeuchtigkeit
    00:00 +17°C° 0 mm 5 m/S 763 mmHg 79%
    01:00 +17°C° 0 mm 5 m/S 763 mmHg 80%
    02:00 +17°C° 0 mm 5 m/S 763 mmHg 81%
    03:00 +17°C° 0 mm 5 m/S 763 mmHg 82%
    04:00 +17°C° 0 mm 5 m/S 763 mmHg 84%
    05:00 +18°C° 0 mm 4 m/S 763 mmHg 86%
    06:00 +19°C° 0 mm 5 m/S 763 mmHg 83%
    07:00 +20°C° 0 mm 5 m/S 763 mmHg 80%
    08:00 +21°C° 0 mm 6 m/S 763 mmHg 77%
    09:00 +22°C° 0 mm 6 m/S 763 mmHg 74%
    10:00 +23°C° 0 mm 6 m/S 763 mmHg 70%
    11:00 +24°C° 0 mm 6 m/S 763 mmHg 67%
    12:00 +24°C° 0 mm 6 m/S 762 mmHg 66%
    13:00 +26°C° 0 mm 6 m/S 761 mmHg 65%
    14:00 +26°C° 0 mm 7 m/S 761 mmHg 64%
    15:00 +24°C° 0 mm 7 m/S 761 mmHg 67%
    16:00 +23°C° 0 mm 7 m/S 761 mmHg 71%
    17:00 +22°C° 0 mm 7 m/S 761 mmHg 75%
    18:00 +21°C° 0 mm 7 m/S 761 mmHg 79%
    19:00 +20°C° 0 mm 7 m/S 761 mmHg 83%
    20:00 +20°C° 0 mm 7 m/S 762 mmHg 87%
    21:00 +20°C° 0 mm 7 m/S 761 mmHg 86%
    22:00 +20°C° 0 mm 7 m/S 761 mmHg 86%
    23:00 +20°C° 0 mm 7 m/S 761 mmHg 86%

    26 Februar, Dienstag

    Zeit Temperatur Niederschläge Wind Luftdruck Luftfeuchtigkeit
    00:00 +20°C° 0 mm 7 m/S 761 mmHg 87%
    01:00 +20°C° 0 mm 7 m/S 760 mmHg 88%
    02:00 +20°C° 0 mm 7 m/S 760 mmHg 89%
    03:00 +20°C° 0 mm 6 m/S 759 mmHg 89%
    04:00 +20°C° 0 mm 6 m/S 759 mmHg 90%
    05:00 +20°C° 0 mm 6 m/S 759 mmHg 90%
    06:00 +21°C° 0 mm 5 m/S 759 mmHg 86%
    07:00 +21°C° 0 mm 5 m/S 759 mmHg 81%
    08:00 +22°C° 0 mm 4 m/S 759 mmHg 77%
    09:00 +26°C° 0 mm 4 m/S 759 mmHg 67%
    10:00 +29°C° 0 mm 4 m/S 758 mmHg 58%
    11:00 +31°C° 0 mm 3 m/S 758 mmHg 48%
    12:00 +33°C° 0 mm 4 m/S 757 mmHg 47%
    13:00 +33°C° 0 mm 4 m/S 756 mmHg 45%
    14:00 +34°C° 0 mm 4 m/S 756 mmHg 44%
    15:00 +32°C° 0 mm 4 m/S 756 mmHg 52%
    16:00 +29°C° 0 mm 4 m/S 756 mmHg 60%
    17:00 +26°C° 0 mm 4 m/S 756 mmHg 67%
    18:00 +25°C° 0 mm 4 m/S 757 mmHg 76%
    19:00 +22°C° 0 mm 3 m/S 757 mmHg 85%
    20:00 +20°C° 0 mm 3 m/S 758 mmHg 93%
    21:00 +20°C° 0 mm 3 m/S 758 mmHg 92%
    22:00 +20°C° 0 mm 3 m/S 758 mmHg 92%
    23:00 +21°C° 0 mm 3 m/S 758 mmHg 91%

    27 Februar, Mittwoch

    Zeit Temperatur Niederschläge Wind Luftdruck Luftfeuchtigkeit
    00:00 +20°C° 0 mm 3 m/S 758 mmHg 90%
    01:00 +20°C° 0 mm 3 m/S 758 mmHg 89%
    02:00 +20°C° 0 mm 3 m/S 758 mmHg 88%
    03:00 +20°C° 0 mm 3 m/S 758 mmHg 88%
    04:00 +20°C° 0 mm 3 m/S 758 mmHg 87%
    05:00 +20°C° 0 mm 3 m/S 758 mmHg 87%
    06:00 +20°C° 0 mm 3 m/S 758 mmHg 85%
    07:00 +20°C° 0 mm 4 m/S 759 mmHg 83%
    08:00 +21°C° 0 mm 4 m/S 759 mmHg 81%
    09:00 +21°C° 0 mm 4 m/S 759 mmHg 79%
    10:00 +21°C° 0 mm 4 m/S 759 mmHg 77%
    11:00 +22°C° 0 mm 3 m/S 759 mmHg 75%
    12:00 +22°C° 0 mm 4 m/S 759 mmHg 73%
    13:00 +22°C° 0 mm 4 m/S 758 mmHg 71%
    14:00 +23°C° 0 mm 4 m/S 758 mmHg 69%
    15:00 +23°C° 0 mm 4 m/S 758 mmHg 69%
    16:00 +22°C° 0 mm 4 m/S 758 mmHg 70%
    17:00 +22°C° 0 mm 4 m/S 758 mmHg 71%
    18:00 +21°C° 0 mm 4 m/S 758 mmHg 76%
    19:00 +20°C° 0 mm 3 m/S 759 mmHg 82%
    20:00 +19°C° 0 mm 3 m/S 759 mmHg 88%
    21:00 +19°C° 0 mm 3 m/S 759 mmHg 89%
    22:00 +18°C° 0 mm 3 m/S 759 mmHg 90%
    23:00 +18°C° 0 mm 3 m/S 759 mmHg 92%
    Mehr zeigen